User: anonymous   Login
Location: Beaurevoir
(49.9971°N, 3.3085°E)
Time: 21:59:55
(UTC+00:00)
Language:

THORAD AGENA D DEB - Orbit

View from above orbital plane
View from above orbital plane
View from above satellite
View from above satellite

Ground track
Ground track

The orbit data is extracted from the following two-line orbital elements,

1 42541U 70025SX  25321.63526297  .00000842  00000-0  95837-3 0  9992
2 42541 100.0768 209.0180 0033479  42.0073 348.2991 13.73156791599879
Epoch (UTC): 17 November 2025 15:14:46
Eccentricity: 0.0033479
inclination: 100.0768°
perigee height: 963 km
apogee height: 1013 km
right ascension of ascending node: 209.0180°
argument of perigee: 42.0073°
revolutions per day: 13.73156791
mean anomaly at epoch: 348.2991°
orbit number at epoch: 59987

The dashed part of the orbit path shows where the satellite is in the earth's shadow,  

DLR